| time (UTC) | temp F | wind direction | speed knots | gust knots | rain 1hr in | rain 24hr in | rain mn in | humidity % | barometer mb |
| 20260508054551 | 52 | 111 | 0.0 | 0.0 | 0.00 | 0.00 | 0.00 | 87 | 1011.3 |
| 20260508053051 | 51 | 124 | 0.0 | 0.0 | 0.00 | 0.00 | 0.00 | 88 | 1011.1 |
| 20260508051546 | 51 | 111 | 0.0 | 0.0 | 0.00 | 0.00 | 0.00 | 88 | 1011.1 |
| 20260508050046 | 51 | 111 | 0.0 | 0.0 | 0.00 | 0.00 | 0.00 | 88 | 1011.1 |
| 20260508044551 | 51 | 111 | 0.0 | 0.0 | 0.00 | 0.00 | 0.00 | 88 | 1011.1 |
| 20260508043046 | 51 | 111 | 0.0 | 0.0 | 0.00 | 0.00 | 0.00 | 89 | 1011.1 |
| 20260508041545 | 50 | 109 | 0.0 | 0.0 | 0.00 | 0.00 | 0.00 | 88 | 1011.1 |
| 20260508040043 | 51 | 109 | 0.0 | 0.0 | 0.00 | 0.00 | 0.00 | 88 | 1011.1 |
| 20260508034542 | 51 | 109 | 0.0 | 0.0 | 0.00 | 0.00 | 0.00 | 87 | 1011.0 |
| 20260508033055 | 51 | 130 | 0.0 | 0.0 | 0.00 | 0.00 | 0.00 | 87 | 1011.0 |
| 20260508031538 | 51 | 101 | 0.0 | 0.0 | 0.00 | 0.00 | 0.00 | 87 | 1011.1 |
| 20260508030036 | 52 | 110 | 0.0 | 0.9 | 0.00 | 0.00 | 0.00 | 87 | 1011.3 |
| 20260508024536 | 52 | 109 | 0.0 | 0.0 | 0.00 | 0.00 | 0.00 | 87 | 1011.4 |
| 20260508023038 | 52 | 132 | 0.0 | 0.0 | 0.00 | 0.00 | 0.00 | 87 | 1011.3 |
| 20260508021535 | 52 | 121 | 0.0 | 0.0 | 0.00 | 0.00 | 0.00 | 87 | 1011.4 |
| 20260508020031 | 52 | 121 | 0.0 | 0.0 | 0.00 | 0.00 | 0.00 | 87 | 1011.5 |
| 20260508014529 | 52 | 121 | 0.0 | 0.0 | 0.00 | 0.00 | 0.00 | 86 | 1011.7 |
| 20260508013027 | 52 | 121 | 0.0 | 0.9 | 0.00 | 0.00 | 0.00 | 84 | 1011.9 |
| 20260508011525 | 53 | 121 | 0.0 | 0.9 | 0.00 | 0.00 | 0.00 | 83 | 1011.9 |
| 20260508010027 | 53 | 121 | 0.0 | 0.0 | 0.00 | 0.00 | 0.00 | 82 | 1011.8 |
| 20260508004522 | 53 | 111 | 0.0 | 0.0 | 0.00 | 0.00 | 0.00 | 82 | 1011.9 |
| 20260508003023 | 53 | 107 | 0.0 | 0.0 | 0.00 | 0.00 | 0.00 | 82 | 1012.1 |
| 20260508001537 | 53 | 111 | 0.0 | 0.0 | 0.00 | 0.00 | 0.00 | 83 | 1012.1 |
| 20260508000017 | 53 | 122 | 0.0 | 0.0 | 0.00 | 0.00 | 0.00 | 83 | 1012.2 |
| 20260507234517 | 53 | 109 | 0.0 | 0.0 | 0.00 | 0.00 | 0.00 | 82 | 1012.4 |
| 20260507233023 | 54 | 112 | 0.0 | 0.0 | 0.00 | 0.00 | 0.00 | 82 | 1012.4 |
| 20260507231514 | 54 | 126 | 0.0 | 0.0 | 0.00 | 0.00 | 0.00 | 82 | 1012.5 |
| 20260507230023 | 54 | 111 | 0.0 | 0.9 | 0.00 | 0.00 | 0.00 | 82 | 1012.6 |
| 20260507224520 | 55 | 132 | 0.0 | 0.0 | 0.00 | 0.00 | 0.00 | 82 | 1012.8 |
| 20260507223007 | 56 | 132 | 0.0 | 0.0 | 0.00 | 0.00 | 0.00 | 81 | 1012.8 |
| 20260507221506 | 56 | 106 | 0.0 | 0.0 | 0.00 | 0.00 | 0.00 | 79 | 1012.7 |
| 20260507220002 | 56 | 186 | 0.0 | 0.0 | 0.00 | 0.00 | 0.00 | 79 | 1012.4 |
| 20260507214502 | 56 | 245 | 0.0 | 0.0 | 0.00 | 0.00 | 0.00 | 79 | 1012.4 |
| 20260507213001 | 56 | 245 | 0.0 | 0.0 | 0.00 | 0.00 | 0.00 | 77 | 1012.3 |
| 20260507211603 | 56 | 252 | 0.0 | 0.0 | 0.00 | 0.00 | 0.00 | 76 | 1012.3 |
| 20260507210100 | 56 | 252 | 0.0 | 0.0 | 0.00 | 0.00 | 0.00 | 76 | 1012.1 |
| 20260507204602 | 57 | 252 | 0.0 | 0.0 | 0.00 | 0.00 | 0.00 | 77 | 1012.0 |
| 20260507203102 | 57 | 252 | 0.0 | 0.0 | 0.00 | 0.00 | 0.00 | 77 | 1011.7 |
| 20260507201558 | 57 | 252 | 0.0 | 0.0 | 0.00 | 0.00 | 0.00 | 77 | 1011.6 |
| 20260507200058 | 58 | 252 | 0.0 | 0.0 | 0.00 | 0.00 | 0.00 | 76 | 1011.5 |
| 20260507194607 | 58 | 252 | 0.0 | 0.0 | 0.00 | 0.00 | 0.00 | 75 | 1011.4 |
| 20260507193059 | 59 | 252 | 0.0 | 0.0 | 0.00 | 0.00 | 0.00 | 73 | 1011.2 |
| 20260507191603 | 60 | 252 | 0.0 | 0.9 | 0.00 | 0.00 | 0.00 | 71 | 1010.9 |
| 20260507190058 | 61 | 252 | 0.0 | 0.0 | 0.00 | 0.00 | 0.00 | 70 | 1010.8 |
| 20260507184556 | 62 | 261 | 0.0 | 0.9 | 0.00 | 0.00 | 0.00 | 68 | 1010.5 |
| 20260507183106 | 62 | 203 | 0.0 | 2.6 | 0.00 | 0.00 | 0.00 | 66 | 1010.3 |
| 20260507181555 | 63 | 213 | 0.0 | 4.3 | 0.00 | 0.00 | 0.00 | 65 | 1010.2 |
| 20260507180057 | 64 | 292 | 0.0 | 4.3 | 0.00 | 0.00 | 0.00 | 64 | 1010.0 |
| 20260507174555 | 64 | 201 | 0.0 | 2.6 | 0.00 | 0.00 | 0.00 | 63 | 1009.9 |
| 20260507173101 | 65 | 191 | 0.0 | 7.0 | 0.00 | 0.00 | 0.00 | 62 | 1009.8 |
| 20260507171555 | 66 | 183 | 0.0 | 2.6 | 0.00 | 0.00 | 0.00 | 60 | 1009.6 |
| 20260507170055 | 67 | 234 | 0.9 | 4.3 | 0.00 | 0.00 | 0.00 | 58 | 1009.4 |
| 20260507164552 | 68 | 250 | 1.7 | 6.1 | 0.00 | 0.00 | 0.00 | 55 | 1009.2 |
| 20260507163056 | 69 | 203 | 0.0 | 1.7 | 0.00 | 0.00 | 0.00 | 49 | 1009.1 |
| 20260507161555 | 71 | 200 | 0.0 | 1.7 | 0.00 | 0.00 | 0.00 | 47 | 1008.9 |
| 20260507160052 | 71 | 180 | 0.0 | 2.6 | 0.00 | 0.00 | 0.00 | 42 | 1008.8 |
| 20260507154551 | 72 | 94 | 0.0 | 0.0 | 0.00 | 0.00 | 0.00 | 39 | 1008.7 |
| 20260507153101 | 72 | 200 | 0.0 | 2.6 | 0.00 | 0.00 | 0.00 | 39 | 1008.7 |
| 20260507151546 | 72 | 65 | 0.0 | 0.0 | 0.00 | 0.00 | 0.00 | 41 | 1008.7 |
| 20260507150045 | 71 | 145 | 0.0 | 3.5 | 0.00 | 0.00 | 0.00 | 43 | 1008.9 |
| 20260507144544 | 71 | 217 | 0.0 | 3.5 | 0.00 | 0.00 | 0.00 | 45 | 1009.1 |
| 20260507143051 | 71 | 225 | 0.9 | 6.1 | 0.00 | 0.00 | 0.00 | 47 | 1009.3 |
| 20260507141539 | 71 | 151 | 2.6 | 8.7 | 0.00 | 0.00 | 0.00 | 47 | 1009.4 |
| 20260507140038 | 71 | 73 | 2.6 | 6.1 | 0.00 | 0.00 | 0.00 | 47 | 1009.5 |
| 20260507134535 | 71 | 207 | 0.0 | 3.5 | 0.00 | 0.00 | 0.00 | 47 | 1009.7 |
| 20260507133042 | 72 | 211 | 0.0 | 5.2 | 0.00 | 0.00 | 0.00 | 46 | 1009.9 |
| 20260507131537 | 71 | 137 | 0.0 | 5.2 | 0.00 | 0.00 | 0.00 | 45 | 1010.0 |
| 20260507130034 | 71 | 146 | 0.0 | 3.5 | 0.00 | 0.00 | 0.00 | 46 | 1010.0 |
| 20260507124527 | 71 | 169 | 0.0 | 2.6 | 0.00 | 0.00 | 0.00 | 46 | 1010.5 |
| 20260507123024 | 70 | 161 | 0.0 | 0.0 | 0.00 | 0.00 | 0.00 | 46 | 1010.6 |
| 20260507121521 | 69 | 167 | 0.0 | 0.0 | 0.00 | 0.00 | 0.00 | 48 | 1010.7 |
| 20260507120016 | 68 | 158 | 0.0 | 1.7 | 0.00 | 0.00 | 0.00 | 48 | 1010.8 |
| 20260507114512 | 68 | 125 | 0.0 | 1.7 | 0.00 | 0.00 | 0.00 | 54 | 1011.1 |
| 20260507113012 | 68 | 129 | 0.0 | 0.9 | 0.00 | 0.00 | 0.00 | 55 | 1011.4 |
| 20260507111516 | 67 | 111 | 0.0 | 0.0 | 0.00 | 0.00 | 0.00 | 56 | 1011.6 |
| 20260507110008 | 67 | 145 | 0.0 | 5.2 | 0.00 | 0.00 | 0.00 | 57 | 1011.8 |
| 20260507104506 | 66 | 110 | 0.0 | 0.0 | 0.00 | 0.00 | 0.00 | 58 | 1012.0 |
| 20260507103004 | 66 | 120 | 0.0 | 1.7 | 0.00 | 0.00 | 0.00 | 57 | 1012.1 |
| 20260507101502 | 65 | 165 | 0.0 | 0.0 | 0.00 | 0.00 | 0.00 | 60 | 1012.1 |
| 20260507100110 | 64 | 152 | 0.0 | 0.0 | 0.00 | 0.00 | 0.00 | 64 | 1012.3 |
| 20260507094601 | 64 | 153 | 0.0 | 0.0 | 0.00 | 0.00 | 0.00 | 63 | 1012.4 |
| 20260507093056 | 63 | 229 | 0.0 | 0.0 | 0.00 | 0.00 | 0.00 | 67 | 1012.4 |
| 20260507091552 | 62 | 169 | 0.0 | 0.0 | 0.00 | 0.00 | 0.00 | 66 | 1012.5 |
| 20260507090056 | 62 | 134 | 0.0 | 1.7 | 0.00 | 0.00 | 0.00 | 68 | 1012.4 |
| 20260507084553 | 61 | 120 | 0.0 | 0.0 | 0.00 | 0.00 | 0.00 | 71 | 1012.5 |
| 20260507083045 | 60 | 117 | 0.0 | 0.0 | 0.00 | 0.00 | 0.00 | 74 | 1012.5 |
| 20260507081539 | 59 | 148 | 0.0 | 2.6 | 0.00 | 0.00 | 0.00 | 75 | 1012.4 |
| 20260507080045 | 58 | 121 | 0.0 | 0.0 | 0.00 | 0.00 | 0.00 | 75 | 1012.5 |
| 20260507074534 | 57 | 115 | 0.0 | 0.0 | 0.00 | 0.00 | 0.00 | 77 | 1012.5 |
| 20260507073039 | 56 | 100 | 0.0 | 3.5 | 0.00 | 0.00 | 0.00 | 76 | 1012.6 |
| 20260507071530 | 56 | 111 | 0.0 | 0.0 | 0.00 | 0.00 | 0.00 | 78 | 1012.5 |
| 20260507070027 | 55 | 126 | 0.0 | 2.6 | 0.00 | 0.00 | 0.00 | 79 | 1012.4 |
| 20260507064526 | 55 | 115 | 0.0 | 0.0 | 0.00 | 0.00 | 0.00 | 80 | 1012.4 |
| 20260507063026 | 54 | 157 | 0.0 | 2.6 | 0.00 | 0.00 | 0.00 | 81 | 1012.3 |
| 20260507061523 | 53 | 136 | 0.0 | 2.6 | 0.00 | 0.00 | 0.00 | 82 | 1012.4 |
| 20260507060023 | 52 | 105 | 0.0 | 0.0 | 0.00 | 0.00 | 0.00 | 83 | 1012.3 |